TimeCDT,TemperatureF,Dew PointF,Humidity,Sea Level PressureIn,VisibilityMPH,Wind Direction,Wind SpeedMPH,Gust SpeedMPH,PrecipitationIn,Events,Conditions,WindDirDegrees,DateUTC
12:15 AM,64.4,57.2,77,29.99,10.0,Calm,Calm,-,N/A,,Clear,0,2013-07-13 05:15:00
12:35 AM,64.4,57.2,77,29.99,10.0,Calm,Calm,-,N/A,,Clear,0,2013-07-13 05:35:00
12:55 AM,64.4,57.2,77,29.98,10.0,Calm,Calm,-,N/A,,Clear,0,2013-07-13 05:55:00
1:15 AM,64.4,57.2,77,29.98,10.0,Calm,Calm,-,N/A,,Clear,0,2013-07-13 06:15:00
1:35 AM,62.6,57.2,82,29.98,10.0,Calm,Calm,-,N/A,,Clear,0,2013-07-13 06:35:00
1:55 AM,62.6,57.2,82,29.98,10.0,Calm,Calm,-,N/A,,Clear,0,2013-07-13 06:55:00
2:15 AM,62.6,57.2,82,29.98,10.0,NNW,3.5,-,N/A,,Clear,330,2013-07-13 07:15:00
2:35 AM,62.6,57.2,82,29.98,10.0,Calm,Calm,-,N/A,,Clear,0,2013-07-13 07:35:00
2:55 AM,60.8,57.2,88,29.98,10.0,Calm,Calm,-,N/A,,Clear,0,2013-07-13 07:55:00
3:15 AM,60.8,57.2,88,29.98,10.0,Calm,Calm,-,N/A,,Clear,0,2013-07-13 08:15:00
3:35 AM,60.8,57.2,88,29.98,10.0,Calm,Calm,-,N/A,,Clear,0,2013-07-13 08:35:00
3:55 AM,62.6,57.2,82,29.98,10.0,Calm,Calm,-,N/A,,Clear,0,2013-07-13 08:55:00
4:15 AM,60.8,57.2,88,29.98,10.0,Calm,Calm,-,N/A,,Clear,0,2013-07-13 09:15:00
4:35 AM,60.8,57.2,88,29.98,9.0,Calm,Calm,-,N/A,,Clear,0,2013-07-13 09:35:00
4:55 AM,59.0,57.2,94,29.99,9.0,Calm,Calm,-,N/A,,Clear,0,2013-07-13 09:55:00
5:15 AM,59.0,57.2,94,29.99,8.0,Calm,Calm,-,N/A,,Clear,0,2013-07-13 10:15:00
5:35 AM,59.0,57.2,94,30.00,8.0,Calm,Calm,-,N/A,,Clear,0,2013-07-13 10:35:00
5:55 AM,59.0,57.2,94,30.00,9.0,Calm,Calm,-,N/A,,Clear,0,2013-07-13 10:55:00
6:15 AM,59.0,55.4,88,30.00,7.0,Calm,Calm,-,N/A,,Clear,0,2013-07-13 11:15:00
6:35 AM,59.0,57.2,94,30.01,6.0,Calm,Calm,-,N/A,,Clear,0,2013-07-13 11:35:00
6:55 AM,62.6,57.2,82,30.01,8.0,Calm,Calm,-,N/A,,Clear,0,2013-07-13 11:55:00
7:15 AM,64.4,59.0,83,30.01,7.0,Calm,Calm,-,N/A,,Clear,0,2013-07-13 12:15:00
7:35 AM,66.2,59.0,78,30.01,9.0,Calm,Calm,-,N/A,,Clear,0,2013-07-13 12:35:00
7:55 AM,68.0,59.0,73,30.02,9.0,North,3.5,-,N/A,,Clear,350,2013-07-13 12:55:00
8:15 AM,71.6,60.8,69,30.02,10.0,Calm,Calm,-,N/A,,Clear,0,2013-07-13 13:15:00
8:35 AM,73.4,62.6,69,30.02,10.0,North,3.5,-,N/A,,Clear,10,2013-07-13 13:35:00
8:55 AM,75.2,60.8,61,30.02,10.0,NE,3.5,-,N/A,,Clear,40,2013-07-13 13:55:00
9:15 AM,77.0,62.6,61,30.02,10.0,NE,4.6,-,N/A,,Clear,40,2013-07-13 14:15:00
9:35 AM,80.6,62.6,54,30.02,10.0,NE,4.6,-,N/A,,Clear,40,2013-07-13 14:35:00
9:55 AM,80.6,62.6,54,30.02,10.0,NNE,3.5,-,N/A,,Clear,30,2013-07-13 14:55:00
10:15 AM,82.4,62.6,51,30.02,10.0,ENE,4.6,-,N/A,,Clear,70,2013-07-13 15:15:00
10:35 AM,84.2,60.8,45,30.02,10.0,East,3.5,-,N/A,,Clear,100,2013-07-13 15:35:00
10:55 AM,84.2,60.8,45,30.02,10.0,North,4.6,-,N/A,,Clear,10,2013-07-13 15:55:00
11:15 AM,86.0,57.2,37,30.02,10.0,NE,5.8,-,N/A,,Clear,50,2013-07-13 16:15:00
11:35 AM,86.0,59.0,40,30.01,10.0,North,3.5,-,N/A,,Clear,10,2013-07-13 16:35:00
11:55 AM,86.0,57.2,37,30.02,10.0,Calm,Calm,-,N/A,,Clear,0,2013-07-13 16:55:00
12:15 PM,87.8,57.2,35,30.01,10.0,NNE,8.1,-,N/A,,Clear,20,2013-07-13 17:15:00
12:35 PM,87.8,57.2,35,30.00,10.0,West,4.6,-,N/A,,Clear,260,2013-07-13 17:35:00
12:55 PM,87.8,57.2,35,30.00,10.0,NNE,6.9,-,N/A,,Clear,20,2013-07-13 17:55:00
1:15 PM,89.6,59.0,36,29.99,10.0,NE,5.8,-,N/A,,Clear,40,2013-07-13 18:15:00
1:35 PM,89.6,57.2,33,29.98,10.0,Calm,Calm,-,N/A,,Clear,0,2013-07-13 18:35:00
1:55 PM,91.4,57.2,31,29.98,10.0,NE,8.1,-,N/A,,Clear,40,2013-07-13 18:55:00
2:15 PM,91.4,57.2,31,29.97,10.0,NNW,3.5,-,N/A,,Clear,330,2013-07-13 19:15:00
2:35 PM,91.4,57.2,31,29.96,10.0,NNE,8.1,-,N/A,,Clear,30,2013-07-13 19:35:00
2:55 PM,91.4,57.2,31,29.95,10.0,North,4.6,-,N/A,,Clear,350,2013-07-13 19:55:00
3:15 PM,91.4,55.4,29,29.95,10.0,East,4.6,-,N/A,,Clear,100,2013-07-13 20:15:00
3:35 PM,91.4,55.4,29,29.94,10.0,ENE,8.1,-,N/A,,Clear,60,2013-07-13 20:35:00
3:55 PM,91.4,55.4,29,29.94,10.0,NNE,5.8,-,N/A,,Clear,30,2013-07-13 20:55:00
4:15 PM,93.2,55.4,28,29.94,10.0,ENE,6.9,-,N/A,,Clear,70,2013-07-13 21:15:00
4:35 PM,93.2,55.4,28,29.93,10.0,ENE,4.6,-,N/A,,Clear,70,2013-07-13 21:35:00
4:55 PM,91.4,55.4,29,29.94,10.0,ENE,6.9,-,N/A,,Clear,70,2013-07-13 21:55:00
5:15 PM,91.4,55.4,29,29.93,10.0,ENE,5.8,-,N/A,,Clear,60,2013-07-13 22:15:00
5:35 PM,89.6,55.4,31,29.93,10.0,ENE,3.5,-,N/A,,Clear,70,2013-07-13 22:35:00
5:55 PM,87.8,57.2,35,29.93,10.0,ENE,5.8,-,N/A,,Clear,60,2013-07-13 22:55:00
6:15 PM,87.8,59.0,38,29.93,10.0,ENE,6.9,-,N/A,,Clear,60,2013-07-13 23:15:00
6:35 PM,86.0,59.0,40,29.93,10.0,ENE,5.8,-,N/A,,Clear,60,2013-07-13 23:35:00
6:55 PM,84.2,59.0,42,29.93,10.0,ENE,4.6,-,N/A,,Clear,60,2013-07-13 23:55:00
7:15 PM,84.2,59.0,42,29.94,10.0,ENE,10.4,16.1,N/A,,Clear,70,2013-07-14 00:15:00
7:35 PM,82.4,59.0,45,29.94,10.0,ENE,6.9,-,N/A,,Clear,60,2013-07-14 00:35:00
7:55 PM,80.6,59.0,48,29.95,10.0,NE,5.8,-,N/A,,Clear,50,2013-07-14 00:55:00
8:15 PM,80.6,59.0,48,29.95,10.0,ENE,5.8,-,N/A,,Clear,70,2013-07-14 01:15:00
8:35 PM,78.8,59.0,51,29.95,10.0,NE,5.8,-,N/A,,Clear,50,2013-07-14 01:35:00
8:55 PM,77.0,59.0,54,29.95,10.0,ENE,4.6,-,N/A,,Clear,60,2013-07-14 01:55:00
9:15 PM,77.0,59.0,54,29.95,10.0,NE,5.8,-,N/A,,Clear,50,2013-07-14 02:15:00
9:35 PM,77.0,59.0,54,29.95,10.0,East,5.8,-,N/A,,Clear,80,2013-07-14 02:35:00
9:55 PM,77.0,59.0,54,29.97,10.0,ENE,6.9,-,N/A,,Clear,60,2013-07-14 02:55:00
10:15 PM,77.0,59.0,54,29.97,10.0,ENE,3.5,-,N/A,,Clear,60,2013-07-14 03:15:00
10:35 PM,75.2,59.0,57,29.98,10.0,Calm,Calm,-,N/A,,Clear,0,2013-07-14 03:35:00
10:55 PM,75.2,59.0,57,29.98,10.0,Calm,Calm,-,N/A,,Clear,0,2013-07-14 03:55:00
11:15 PM,73.4,59.0,61,29.97,10.0,Calm,Calm,-,N/A,,Clear,0,2013-07-14 04:15:00
11:35 PM,71.6,60.8,69,29.97,10.0,Calm,Calm,-,N/A,,Clear,0,2013-07-14 04:35:00
11:55 PM,69.8,62.6,78,29.97,10.0,NE,3.5,-,N/A,,Clear,40,2013-07-14 04:55:00